Regional Weather Roundup
Issued by NWS San Diego, CA

Home | Current Version | Previous Version | Text Only | Print | Product List | Glossary On
Versions: 1 2 3 4 5 6 7 8 9 10 11 12 13 14 15 16 17 18 19 20 21 22 23 24 25 26 27 28 29 30 31 32 33 34 35 36 37 38 39 40 41 42 43 44 45 46 47 48 49 50
000
ASUS46 KSGX 190910
RWRSGX

SAN DIEGO HOURLY WEATHER ROUNDUP
NATIONAL WEATHER SERVICE SAN DIEGO CA
200 AM PDT SAT APR 19 2014

NOTE: "FAIR" INDICATES FEW OR NO CLOUDS BELOW 12,000 FEET WITH NO
SIGNIFICANT WEATHER AND/OR OBSTRUCTIONS TO VISIBILITY.

CAZ042-043-060-061-PZZ750-775-191000-

GREATER SAN DIEGO AREA

CITY           SKY/WX    TMP DP  RH WIND       PRES   REMARKS
LINDBERGH FLD  CLOUDY    63  54  72 NW5       29.96F
NATIONAL CITY    N/A     63  56  78 N5        29.95F
CHULA VISTA      N/A     62  56  80 CALM      29.88F
IMPERIAL BEACH MOCLDY    60  55  83 W3        29.95F
BROWN FIELD    CLOUDY    60  53  77 CALM      29.94F
MIRAMAR MCAS   MOCLDY    61  53  75 CALM      29.94S
MONTGOMERY FLD CLOUDY    61  53  75 N3        29.95S

$$

NORTH SAN DIEGO COUNTY

CITY           SKY/WX    TMP DP  RH WIND       PRES   REMARKS
CAMP PENDLETON PTCLDY    52  47  83 CALM      29.95F
RED BEACH      FAIR      56  50  80 NE6       29.94F
OCEANSIDE AP   PTCLDY    53  49  86 CALM      29.93F
VISTA            N/A     57  53  86 CALM      29.93F
CARLSBAD       CLOUDY    61  53  75 CALM      29.93F
DEL MAR          N/A     60  57  88 CALM      29.96F
LA JOLLA SCRIP   N/A     60  58  94 CALM      29.92F
FALLBROOK        N/A     56  56 100 CALM      29.95S
ESCONDIDO        N/A     60  53  76 W1        29.96S
SAN MARCOS       N/A     59  54  81 CALM      29.93F
POWAY            N/A     60  53  78 CALM      29.96F
R. PENASQUITOS   N/A     60  54  80 CALM      29.96S

$$

EAST SAN DIEGO COUNTY

CITY           SKY/WX    TMP DP  RH WIND       PRES   REMARKS
RAMONA         CLOUDY    57  51  80 NW3       29.95F
SANTEE LAKES     N/A     61  55  78 CALM      29.96F
GILLESPIE FLD  CLOUDY    61  52  72 NW3       29.96F
LA MESA          N/A     61  55  82 CALM      29.89F
JAMUL            N/A     58  54  86 W2        29.93F
DESCANSO N       N/A     48  46  91 CALM      29.81S
MT. LAGUNA OBS   N/A     47  38  71 CALM      29.62
CAMPO            N/A     52  49  89 NW3       29.92S

$$

ORANGE COUNTY AND THE LOS ANGELES BASIN

CITY           SKY/WX    TMP DP  RH WIND       PRES   REMARKS
JOHN WAYNE AP  CLEAR     61  55  81 S3        29.95S
LAGUNA BEACH     N/A     55  51  87 CALM      29.92F
LAKE FOREST FR   N/A     54  47  78 CALM      29.85F
SANTA ANA        N/A     59  54  83 CALM      29.91S
HUNTINGTON BCH   N/A     58  56  92 CALM      29.96S
LOS ALAMITOS   FAIR      57  56  94 S5        29.95F
FULLERTON      CLEAR     60  55  83 S3        29.94F
LONG BEACH     CLEAR     59  52  77 CALM      29.94F
L.A. AP        MOCLDY    60  53  77 SE3       29.95S
L.A. DOWNTOWN  CLEAR     60  53  77 CALM      29.94S

$$

THE INLAND EMPIRE

CITY           SKY/WX    TMP DP  RH WIND       PRES   REMARKS
CORONA         CLEAR     51  48  89 CALM      29.96S
CHINO          CLEAR     56  51  84 CALM      29.96S
ONTARIO        MOCLDY    58  50  75 W5        29.95S
RIVERSIDE AP   PTCLDY    59  51  75 CALM      29.95S
RIV CYN CREST    N/A     58  57  97 S1        29.93S
MORENO VALLEY    N/A     53  52  95 CALM      28.09R
MARCH ARB      PTCLDY    52  48  86 SE1       29.96S
HORSETHIEF CYN   N/A     54  46  75 S3        29.96S
PERRIS           N/A     55  52  89 S3          N/A
MENIFEE          N/A     56  53  88 CALM      30.01S
HEMET EAST       N/A     52  47  82 CALM      29.95S
FRENCH VALLEY  NOT AVBL
TEMECULA         N/A     56  52  88 CALM      29.93F

$$

SAN BERNARDINO AND RIVERSIDE COUNTY MOUNTAINS

CITY           SKY/WX    TMP DP  RH WIND       PRES   REMARKS
BIG BEAR AP    PTCLDY    36  32  87 CALM      30.08S
BIG BEAR SHEA    N/A     36  31  80 CALM      30.03S
ANGELUS OAKS     N/A     44  33  65 MISG      29.83F
PINE COVE        N/A     47  35  63 S1        29.88S

$$

SOUTHERN DESERT INCLUDING THE COACHELLA VALLEY

CITY           SKY/WX    TMP DP  RH WIND       PRES   REMARKS
PALM SPRINGS   PTCLDY    68  51  54 NW9       29.88S
THOUSAND PALMS   N/A     69  51  52 N8        29.84F
PALM DESERT      N/A     69  53  57 CALM      28.53F
THERMAL        MOCLDY    71  51  49 N6        29.83S
BLYTHE         CLOUDY    71  48  43 N6        29.86F
IMPERIAL AP    MOCLDY    70  52  52 E7        29.81F
EL CENTRO NAS  PTCLDY    65  52  62 NE8       29.81F
YUMA AZ        PTCLDY    68  47  46 NE6       29.83F

$$

UPPER DESERT

CITY           SKY/WX    TMP DP  RH WIND       PRES   REMARKS
VICTORVILLE AP CLEAR     54  45  71 SW3       29.94F
HESPERIA         N/A     56  46  68 CALM      29.98F
GRAY BUTTE AP  NOT AVBL
PALMDALE       CLEAR     57  38  48 SW7       29.94F
LANCASTER      CLEAR     59  34  39 SW8       29.93F
EDWARDS AFB    CLEAR     57  38  49 S8        29.91S
DAGGETT        MOCLDY    66  41  40 W7        29.90S
29 PALMS N     MOCLDY    64  39  39 N3        29.97S
NEEDLES        CLOUDY    74  44  34 S3        29.89F

$$

REGIONAL REPORTS

CITY           SKY/WX    TMP DP  RH WIND       PRES   REMARKS
SANTA BARBARA  CLEAR     55  50  83 CALM      29.92S
SANDBERG       CLEAR     54  42  64 NW10      30.01F
MT. WILSON       N/A     48  32  53 E5          N/A
LAS VEGAS NV   MOCLDY    67  39  35 S16       29.86R
PHOENIX AZ     PTCLDY    68  44  42 CALM      29.86S
TIJUANA        MOCLDY    61  50  67 N6        29.97S

$$

OFFSHORE ISLANDS

CITY           SKY/WX    TMP DP  RH WIND       PRES   REMARKS
CATALINA ARPT  PTCLDY    54  50  86 CALM      29.96F
SAN NICOLAS IS PTCLDY   N/A N/A N/A W9        29.94F

$$

MARINE AND OFFSHORE BUOY REPORTS

STATION/POSITION SKY/WX   TEMP    WIND        PRES    SWELL
                          AIR SEA DIR/SP/G            HT/PER/DIR
                          (F)     (DEG/KT/KT) (MB)    (FT/S/D)
S CLEMENTE BASIN           61 63  120/  2/  2 1013.7F   5/290/12
SAN NICOLAS IS.               59                N/A     3/310/11
SO. S. ROSA ISLA           55 58  320/ 17/ 19 1013.7F   3/11
W. S. BARBARA CH           53 55  320/ 17/ 21 1013.5S   5/310/ 8
S. MONICA BASIN            59 60  330/  6/  8 1013.3F   3/270/ 6
S PEDRO CHANNEL               61                N/A     2/260/11
DANA POINT                    60                N/A     2/210/13
CMP PENDLETON NS              62                N/A     2/220/12
OCEANSIDE OFFSHR              61                N/A     2/190/15
TORREY PINES OTR              62                N/A     2/200/13
LA JOLLA 1                 61 59  310/  1/  2 1014.1F
MISSION BAY BUOY              61                N/A     2/280/11
SAN DIEGO BAY                 64              1014.3S
POINT LOMA SOUTH              62                N/A     2/210/12

$$




USA.gov is the U.S. government's official web portal to all federal, state and local government web resources and services.